Flag for U.S.A. Weather past 2 weeks in Bridgewater, Massachusetts, U.S.A.

Now
66 °F

Sunny.


Feels Like: 66 °F
Forecast: 49 / 65 °F
Wind: 10 mph from Southwest

Location: Taunton Municipal Airport

Current Time: Apr 21, 2015 at 11:42:02 AM

Latest Report: Apr 21, 2015 at 10:52 AM


Visibility: 10 mi

Pressure: 29.56 "Hg

Humidity: 73%

Dew point: 57 °F

Location of BridgewaterLocation

Historic Weather in Bridgewater — Graph

°F

Bridgewater temperature yesterday

Maximum temperature yesterday: 56 °F (at 9:52 PM)
Minimum temperature yesterday: 36 °F (at 12:52 AM)
Average temperature yesterday: 48 °F

Past Weeks' High & Low Weather Summary

 TemperatureHumidityPressure
High74 °F (Apr 18, 1:52 PM)97% (Apr 8, 4:52 AM)30.49 "Hg (Apr 8, 4:52 AM)
Low28 °F (Apr 16, 5:52 AM)13% (Apr 15, 3:52 PM)29.52 "Hg (Apr 21, 9:02 AM)
Average49 °F70%30.13 "Hg
* Reported Apr 6 9:52 AM — Apr 21 9:52 AM, Bridgewater, Weather by CustomWeather, © 2015

Note: Actual official high and low records may vary slightly from our data, if they occured in-between our weather recording intervals... More about our weather records

Advertising

Bridgewater weather history for previous 24 hours

 ConditionsComfort  
Time TempWeatherWind HumidityBarometerVisibility
9:52 AM
Tue, Apr 21
62 °FScattered clouds.8 mph83%29.54 "Hg10 mi
9:02 AM58 °FPartly sunny.No wind93%29.52 "Hg10 mi
8:52 AM58 °FThundershowers. Broken clouds.No wind90%29.52 "Hg10 mi
7:52 AM58 °FLow clouds.7 mph93%29.55 "Hg10 mi
6:52 AM58 °FLow clouds.6 mph93%29.57 "Hg10 mi
5:52 AM58 °FLow clouds.5 mph93%29.56 "Hg10 mi
4:59 AM56 °FThunderstorms. Mostly cloudy.5 mph97%29.56 "Hg10 mi
4:03 AM55 °FThundershowers. Fog.9 mph96%29.56 "Hg1 mi
3:52 AM55 °FFog.8 mph96%29.57 "Hg1 mi
3:01 AM56 °FFog.9 mph97%29.61 "Hg1 mi
1:52 AM57 °FLight rain. Fog.13 mph93%29.65 "Hg2 mi
12:52 AM57 °FLight rain. Fog.16 mph93%29.68 "Hg2 mi
11:52 PM
Mon, Apr 20
56 °FLight rain. Fog.14 mph93%29.71 "Hg5 mi
10:52 PM56 °FLight rain. Low clouds.16 mph93%29.72 "Hg8 mi
9:52 PM56 °FLight rain. Low clouds.20 mph93%29.76 "Hg9 mi
8:52 PM55 °FLight rain. Fog.16 mph90%29.78 "Hg4 mi
7:52 PM55 °FLight rain. Low clouds.21 mph90%29.80 "Hg10 mi
7:00 PM54 °FLight rain. Fog.21 mph93%29.80 "Hg2 mi
5:52 PM54 °FLight rain. Fog.22 mph93%29.81 "Hg2 mi
4:52 PM54 °FLight rain. Fog.21 mph90%29.84 "Hg2 mi
3:52 PM53 °FLight rain. Fog.15 mph89%29.88 "Hg3 mi
2:52 PM53 °FLight rain. Overcast.18 mph80%29.93 "Hg7 mi
1:52 PM52 °FLight rain. Mostly cloudy.9 mph80%29.97 "Hg10 mi
12:52 PM51 °FLight rain. Overcast.12 mph74%30.01 "Hg10 mi
11:52 AM52 °FOvercast.13 mph64%30.05 "Hg10 mi
Weather by CustomWeather, © 2015

See weather overviewHow to use our weather pages